Location: Platte
(43.3870°N, 98.8440°W)
Time: 00:09:21
(UTC-05:00)

Meteor 1-23 Rocket - Pass Details

Date: 21 May 2018
Orbit: 839 x 887 km, 81.3° (Epoch: 18 June)

Event Time Altitude Azimuth Distance (km) Brightness Sun altitude
Exits shadow 23:06:41 29° 165° (SSE) 1,504 5.0 -18.0°
Maximum altitude 23:09:29 61° 96° (E) 954 4.2 -18.3°
Drops below altitude 10° 23:14:58 10° 17° (NNE) 2,465 7.1 -18.9°
Sets 23:17:24 0° 14° (NNE) 3,403 8.0 -19.1°
